Maple Lake, MN

12:16 PM CDT on April 26, 2017 (GMT -0500)
Maple Lake Municipal

Weather History for KMGG - May, 2013

Change the Weather History Date:

Tuesday, May 7, 2013

  Actual Average (KSTC) Record (KSTC)
Temperature  
Mean Temperature 62 °F -  
Max Temperature 77 °F 65 °F 92 °F (1990)
Min Temperature 46 °F 42 °F 23 °F (1907)
Degree Days  
Heating Degree Days 4    
Growing Degree Days 12 (Base 50)    
Moisture  
Dew Point 48 °F    
Average Humidity 63    
Maximum Humidity 97    
Minimum Humidity 31    
Precipitation  
Precipitation 0.00 in - - ()
Sea Level Pressure  
Sea Level Pressure 30.02 in    
Wind  
Wind Speed 2 mph (South)    
Max Wind Speed 12 mph    
Max Gust Speed -    
Visibility 10 miles    
Events      
Averages and records for this station are not official NWS values.
T = Trace of Precipitation, MM = Missing Value Source: NWS Daily Summary

Daily Weather History Graph

Daily Weather History Graph

Search for Another Location

Airport or City:

Trip Planner

Search our weather history database for the weather conditions in past years. The results will help you decide how hot, cold, wet, or windy it might be!

Date:

Astronomy

May. 07, 2013 Rise Set
Actual Time 5:55 AM CDT 8:29 PM CDT
Civil Twilight 5:22 AM CDT 9:03 PM CDT
Nautical Twilight 4:40 AM CDT 9:45 PM CDT
Astronomical Twilight 3:52 AM CDT 10:33 PM CDT
Moon 4:36 AM CDT (5/7) 6:25 PM CDT (5/7)
Length of Visible Light 15h 40m
Length of Day
14h 34m
Waning Crescent, 5% of the Moon is Illuminated
May 7
Waning Crescent
May 9
New
May 17
First Quarter
May 24
Full
May 31
Last Quarter

Hourly Weather History & Observations

Time (CDT) Temp. Dew Point Humidity Pressure Visibility Wind Dir Wind Speed Gust Speed Precip Events Conditions
12:16 AM 54.0 °F 49.1 °F 84% 30.05 in 10.0 mi West 3.5 mph - N/A   Clear
12:36 AM 55.8 °F 49.6 °F 80% 30.06 in 10.0 mi West 3.5 mph - N/A   Clear
12:56 AM 53.1 °F 48.9 °F 86% 30.06 in 10.0 mi West 3.5 mph - N/A   Clear
1:16 AM 53.4 °F 48.7 °F 84% 30.06 in 10.0 mi Calm Calm - N/A   Clear
1:36 AM 51.8 °F 48.2 °F 88% 30.06 in 10.0 mi Calm Calm - N/A   Clear
1:56 AM 50.5 °F 47.8 °F 90% 30.05 in 10.0 mi Calm Calm - N/A   Clear
2:17 AM 50.7 °F 48.2 °F 91% 30.05 in 10.0 mi Calm Calm - N/A   Clear
2:36 AM 49.5 °F 46.9 °F 91% 30.05 in 10.0 mi Calm Calm - N/A   Clear
3:17 AM 47.8 °F 46.0 °F 93% 30.05 in 10.0 mi West 3.5 mph - N/A   Clear
3:36 AM 48.2 °F 46.4 °F 93% 30.05 in 10.0 mi Calm Calm - N/A   Clear
3:56 AM 49.1 °F 47.1 °F 93% 30.05 in 10.0 mi Calm Calm - N/A   Clear
4:17 AM 46.9 °F 45.5 °F 95% 30.05 in 10.0 mi Calm Calm - N/A   Clear
4:36 AM 47.5 °F 46.4 °F 96% 30.05 in 10.0 mi Calm Calm - N/A   Clear
4:56 AM 48.0 °F 46.8 °F 95% 30.05 in 7.0 mi Calm Calm - N/A   Clear
5:17 AM 47.8 °F 46.8 °F 96% 30.06 in 7.0 mi Calm Calm - N/A   Clear
5:37 AM 48.0 °F 46.9 °F 96% 30.06 in 7.0 mi Calm Calm - N/A   Clear
5:56 AM 48.0 °F 46.9 °F 96% 30.05 in 7.0 mi Calm Calm - N/A   Clear
6:16 AM 47.5 °F 46.8 °F 97% 30.06 in 7.0 mi Calm Calm - N/A   Clear
6:36 AM 47.8 °F 47.1 °F 97% 30.06 in 5.0 mi Calm Calm - N/A   Clear
6:56 AM 48.2 °F 46.9 °F 95% 30.06 in 5.0 mi Calm Calm - N/A   Clear
7:16 AM 48.9 °F 47.7 °F 95% 30.06 in 5.0 mi Calm Calm - N/A   Clear
7:36 AM 52.9 °F 50.2 °F 91% 30.07 in 7.0 mi Calm Calm - N/A   Clear
7:56 AM 56.1 °F 52.3 °F 87% 30.07 in 7.0 mi Calm Calm - N/A   Clear
8:16 AM 59.0 °F 51.3 °F 75% 30.07 in 10.0 mi Calm Calm - N/A   Clear
8:36 AM 61.0 °F 52.2 °F 73% 30.07 in 10.0 mi Calm Calm - N/A   Clear
8:57 AM 63.9 °F 52.3 °F 66% 30.07 in 10.0 mi Calm Calm - N/A   Clear
9:16 AM 65.8 °F 52.9 °F 63% 30.07 in 10.0 mi Calm Calm - N/A   Clear
9:36 AM 66.9 °F 50.5 °F 56% 30.07 in 10.0 mi SE 3.5 mph - N/A   Clear
9:57 AM 68.4 °F 51.4 °F 55% 30.07 in 10.0 mi Calm Calm - N/A   Clear
10:16 AM 69.8 °F 51.1 °F 51% 30.07 in 10.0 mi Calm Calm - N/A   Clear
10:36 AM 70.3 °F 50.9 °F 50% 30.07 in 10.0 mi South 4.6 mph - N/A   Clear
10:57 AM 70.7 °F 50.5 °F 49% 30.07 in 10.0 mi Calm Calm - N/A   Clear
11:16 AM 72.0 °F 50.7 °F 47% 30.06 in 10.0 mi South 5.8 mph - N/A   Clear
11:36 AM 71.6 °F 50.4 °F 47% 30.06 in 10.0 mi South 6.9 mph - N/A   Clear
11:56 AM 72.1 °F 49.1 °F 44% 30.05 in 10.0 mi South 3.5 mph - N/A   Clear
12:17 PM 72.5 °F 49.3 °F 44% 30.05 in 10.0 mi South 4.6 mph - N/A   Scattered Clouds
12:56 PM 73.2 °F 47.8 °F 41% 30.04 in 10.0 mi Calm Calm - N/A   Scattered Clouds
1:17 PM 75.7 °F 45.9 °F 35% 30.03 in 10.0 mi SE 6.9 mph - N/A   Scattered Clouds
1:36 PM 75.0 °F 46.0 °F 36% 30.03 in 10.0 mi SSW 3.5 mph - N/A   Scattered Clouds
1:56 PM 75.7 °F 45.3 °F 34% 30.02 in 10.0 mi South 6.9 mph - N/A   Clear
2:16 PM 77.0 °F 46.4 °F 34% 30.02 in 10.0 mi SW 8.1 mph - N/A   Scattered Clouds
2:36 PM 73.9 °F 44.8 °F 35% 30.02 in 10.0 mi Calm Calm - N/A   Mostly Cloudy
2:56 PM 77.7 °F 45.1 °F 31% 30.01 in 10.0 mi SSE 11.5 mph - N/A   Mostly Cloudy
3:16 PM 77.4 °F 45.0 °F 32% 30.01 in 10.0 mi SSW 8.1 mph - N/A   Scattered Clouds
3:36 PM 76.6 °F 44.4 °F 32% 30.00 in 10.0 mi SSW 6.9 mph - N/A   Scattered Clouds
3:57 PM 77.7 °F 45.5 °F 32% 29.99 in 10.0 mi South 8.1 mph - N/A   Scattered Clouds
4:16 PM 77.0 °F 45.0 °F 32% 29.99 in 10.0 mi South 3.5 mph - N/A   Scattered Clouds
4:36 PM 77.2 °F 44.6 °F 31% 29.98 in 10.0 mi SSW 8.1 mph - N/A   Clear
4:57 PM 76.3 °F 45.0 °F 33% 29.98 in 10.0 mi South 4.6 mph - N/A   Scattered Clouds
5:16 PM 77.4 °F 46.2 °F 33% 29.98 in 10.0 mi South 6.9 mph - N/A   Scattered Clouds
5:36 PM 74.7 °F 45.7 °F 36% 29.98 in 10.0 mi South 4.6 mph - N/A   Scattered Clouds
5:56 PM 76.5 °F 46.0 °F 34% 29.97 in 10.0 mi South 5.8 mph - N/A   Clear
6:16 PM 74.1 °F 45.9 °F 36% 29.97 in 10.0 mi SSW 3.5 mph - N/A   Scattered Clouds
6:36 PM 73.4 °F 45.9 °F 37% 29.97 in 10.0 mi South 3.5 mph - N/A   Clear
6:57 PM 75.2 °F 44.6 °F 34% 29.96 in 10.0 mi South 6.9 mph - N/A   Clear
7:16 PM 75.0 °F 45.0 °F 34% 29.96 in 10.0 mi South 5.8 mph - N/A   Clear
7:36 PM 73.9 °F 45.5 °F 36% 29.97 in 10.0 mi SSE 6.9 mph - N/A   Clear
7:55 PM 72.1 °F 45.9 °F 39% 29.97 in 10.0 mi SSE 4.6 mph - N/A   Clear
8:16 PM 70.0 °F 47.1 °F 44% 29.96 in 10.0 mi Calm Calm - N/A   Clear
8:36 PM 66.7 °F 47.7 °F 50% 29.96 in 10.0 mi Calm Calm - N/A   Clear
8:56 PM 65.1 °F 47.8 °F 54% 29.97 in 10.0 mi Calm Calm - N/A   Clear
9:16 PM 62.8 °F 47.8 °F 58% 29.97 in 10.0 mi Calm Calm - N/A   Clear
9:36 PM 60.6 °F 48.2 °F 64% 29.97 in 10.0 mi Calm Calm - N/A   Clear
9:56 PM 60.8 °F 48.7 °F 64% 29.98 in 10.0 mi Calm Calm - N/A   Clear
10:16 PM 59.2 °F 48.2 °F 67% 29.98 in 10.0 mi Calm Calm - N/A   Clear
10:36 PM 56.8 °F 48.9 °F 75% 29.98 in 10.0 mi Calm Calm - N/A   Clear
10:56 PM 56.3 °F 48.7 °F 76% 29.98 in 10.0 mi Calm Calm - N/A   Clear
11:16 PM 55.4 °F 50.4 °F 83% 29.98 in 10.0 mi Calm Calm - N/A   Clear
11:36 PM 56.1 °F 50.4 °F 81% 29.98 in 10.0 mi Calm Calm - N/A   Clear
11:56 PM 54.0 °F 48.9 °F 83% 29.97 in 10.0 mi Calm Calm - N/A   Clear